Flag for France Weather past 2 weeks in Strasbourg, France

Now
55 °F

Overcast.


Feels Like: 55 °F
Forecast: 41 / 65 °F
Wind: 3 mph from Southwest

Location: Strasbourg Airport


UV Index: 0 (Low)

Visibility: 5 mi


Pressure: 29.71 "Hg

Humidity: 67%

Dew point: 45 °F

Location of StrasbourgLocation

Historic Weather in Strasbourg

°F

Strasbourg temperature yesterday

Maximum temperature yesterday: 54 °F (at 4:30 PM)
Minimum temperature yesterday: 36 °F (at 3:30 AM)
Average temperature yesterday: 46 °F

Past Weeks' High & Low Weather Summary

 TemperatureHumidityPressure
High73 °F (Apr 7, 4:00 PM)100% (Apr 6, 3:30 AM)30.36 "Hg (Apr 6, 3:30 AM)
Low34 °F (Apr 17, 5:30 AM)19% (Apr 17, 5:30 PM)29.71 "Hg (Apr 20, 3:00 AM)
Average53 °F59%30.08 "Hg
* Reported Apr 5 10:00 AM — Apr 20 10:30 AM, Strasbourg, Weather by CustomWeather, © 2014

Note: Actual official high and low records may vary slightly from our data, if they occured in-between our weather recording intervals... More about our weather records

Advertising

Historic Weather Conditions — Data for Previous 24 hours

 ConditionsComfort  
Time TempWeatherWind HumidityBarometerVisibility
10:30 AM
Apr 20
54 °FPartly sunny.3 mph72%29.71 "Hg5 mi
10:00 AM52 °FPartly sunny.5 mph77%29.71 "Hg5 mi
9:30 AM52 °FPartly sunny.7 mph77%29.71 "Hg5 mi
9:00 AM50 °FPartly sunny.3 mph82%29.71 "Hg4 mi
8:30 AM46 °FOvercast.2 mph93%29.71 "Hg4 mi
8:00 AM43 °FFog.No wind93%29.71 "Hg2 mi
7:30 AM41 °FFog.1 mph93%29.71 "Hg2 mi
7:00 AM39 °FFog.1 mph93%29.71 "Hg2 mi
6:30 AM39 °FFog.3 mph100%29.71 "Hg2 mi
6:00 AM39 °FFog.6 mph93%29.71 "Hg2 mi
5:30 AM41 °FFog.3 mph93%29.71 "Hg2 mi
5:00 AM41 °FFog.2 mph100%29.71 "Hg3 mi
4:30 AM41 °FFog.2 mph93%29.71 "Hg2 mi
4:00 AM43 °FFog.5 mph87%29.71 "Hg3 mi
3:30 AM43 °FClear.2 mph93%29.71 "Hg4 mi
3:00 AM45 °FPassing clouds.3 mph81%29.71 "Hg4 mi
2:30 AM45 °FPassing clouds.2 mph81%29.74 "Hg4 mi
2:00 AM45 °FPartly cloudy.3 mph81%29.74 "Hg4 mi
1:30 AM45 °FPassing clouds.2 mph87%29.74 "Hg4 mi
1:00 AM46 °FPassing clouds.2 mph82%29.74 "Hg4 mi
12:30 AM48 °FPassing clouds.No wind76%29.74 "Hg5 mi
12:00 AM48 °FPassing clouds.3 mph76%29.74 "Hg5 mi
11:30 PM
Apr 19
50 °FOvercast.2 mph71%29.77 "Hg6 mi
11:00 PM50 °FMostly cloudy.No wind71%29.77 "Hg6 mi
10:30 PM48 °FOvercast.3 mph76%29.77 "HgN/A
10:00 PM48 °FOvercast.2 mph76%29.77 "HgN/A
9:30 PM50 °FPartly cloudy.2 mph71%29.80 "HgN/A
9:00 PM50 °FMostly cloudy.1 mph71%29.77 "HgN/A
8:30 PM52 °FMostly cloudy.3 mph67%29.80 "HgN/A
8:00 PM54 °FOvercast.3 mph63%29.77 "HgN/A
7:30 PM54 °FMostly cloudy.6 mph63%29.77 "HgN/A
7:00 PM54 °FMostly cloudy.6 mph63%29.80 "HgN/A
6:30 PM54 °FOvercast.2 mph63%29.80 "HgN/A
6:00 PM54 °FOvercast.3 mph58%29.80 "HgN/A
5:30 PM54 °FOvercast.5 mph58%29.80 "HgN/A
5:00 PM54 °FOvercast.9 mph58%29.80 "HgN/A
4:30 PM54 °FOvercast.13 mph58%29.83 "HgN/A
4:00 PM52 °FOvercast.13 mph62%29.83 "HgN/A
3:30 PM52 °FOvercast.14 mph62%29.83 "HgN/A
3:00 PM52 °FOvercast.16 mph58%29.86 "HgN/A
2:30 PM50 °FOvercast.15 mph62%29.86 "HgN/A
2:00 PM50 °FOvercast.16 mph62%29.86 "HgN/A
1:30 PM50 °FOvercast.17 mph62%29.86 "HgN/A
1:00 PM48 °FOvercast.17 mph66%29.86 "HgN/A
12:30 PM50 °FCloudy.20 mph67%29.89 "HgN/A
12:00 PM46 °FMostly cloudy.18 mph71%29.89 "HgN/A
11:30 AM46 °FMostly cloudy.17 mph71%29.89 "HgN/A
11:00 AM45 °FMostly cloudy.16 mph76%29.92 "HgN/A
Weather by CustomWeather, © 2014

See weather overview